DW8548 Weather Reports


time (UTC)temp
F
wind
direction
speed
knots
gust
knots
rain 1hr
in
rain 24hr
in
rain mn
in
humidity
%
barometer
mb
20260902221608 53 0 0.0 0.0 0.00 0.22 0.04 95 1018.9
20260902220112 53 0 0.0 0.0 0.00 0.21 0.03 95 1018.8
20260902214604 54 0 0.0 0.0 0.00 0.21 0.03 94 1018.9
20260902213102 55 0 0.0 0.9 0.00 0.21 0.03 95 1018.8
20260902211603 55 0 0.0 0.0 0.00 0.21 0.03 95 1018.9
20260902210100 55 0 0.0 0.0 0.00 0.21 0.03 95 1018.8
20260902204642 55 0 0.0 0.9 0.00 0.21 0.03 95 1018.7
20260902203102 55 0 0.0 0.9 0.00 0.21 0.03 95 1018.8
20260902201603 55 0 0.0 0.0 0.00 0.21 0.03 95 1018.8
20260902200103 55 0 0.0 0.9 0.00 0.21 0.03 95 1018.9
20260902194603 55 0 0.0 0.9 0.00 0.21 0.03 95 1018.9
20260902193105 56 0 0.0 1.7 0.00 0.21 0.03 94 1019.1
20260902191604 56 0 0.0 0.0 0.03 0.21 0.03 95 1019.1
20260902190105 56 0 0.0 1.7 0.03 0.21 0.03 95 1019.5
20260902184656 56 0 0.0 0.0 0.03 0.21 0.03 94 1019.7
20260902183113 56 0 0.0 0.9 0.03 0.21 0.03 94 1019.8
20260902181614 56 0 0.0 0.0 0.00 0.18 0.00 94 1020.0
20260902180109 56 0 0.0 0.0 0.00 0.17 0.00 94 1020.0
20260902174603 56 0 0.0 0.0 0.00 0.17 0.00 94 1020.0
20260902173119 56 0 0.0 0.0 0.00 0.17 0.00 94 1020.0
20260902171607 55 0 0.0 0.0 0.00 0.17 0.00 94 1020.2
20260902170104 55 0 0.0 0.0 0.00 0.17 0.00 94 1020.2
20260902164606 55 0 0.0 0.0 0.00 0.17 0.00 94 1020.2
20260902163105 55 0 0.0 0.0 0.00 0.17 0.00 94 1020.4
20260902161602 55 0 0.0 0.9 0.00 0.17 0.00 94 1020.5
20260902160104 55 0 0.0 0.9 0.00 0.17 0.00 94 1020.7
20260902154605 55 0 0.0 0.0 0.00 0.17 0.17 93 1020.8
20260902153108 55 0 0.0 0.0 0.00 0.17 0.17 94 1020.9
20260902151606 56 0 0.0 0.0 0.00 0.17 0.17 94 1021.0
20260902150105 56 0 0.0 0.0 0.00 0.17 0.17 93 1021.3
20260902144603 56 0 0.0 0.0 0.00 0.17 0.17 93 1021.4
20260902143105 56 0 0.0 0.0 0.00 0.17 0.17 93 1021.3
20260902141601 56 0 0.0 0.0 0.00 0.17 0.17 93 1021.4
20260902140101 56 0 0.0 0.0 0.00 0.17 0.17 93 1021.5
20260902134804 57 0 0.0 0.0 0.00 0.17 0.17 93 1021.6
20260902133112 57 0 0.0 0.0 0.00 0.17 0.17 93 1021.7
20260902131607 57 0 0.0 0.0 0.00 0.17 0.17 93 1021.8
20260902130115 56 0 0.0 0.0 0.00 0.16 0.16 92 1021.8
20260902124605 57 0 0.0 0.0 0.00 0.16 0.16 92 1021.8
20260902123112 57 0 0.0 0.0 0.00 0.16 0.16 92 1021.7
20260902121604 57 0 0.0 0.0 0.03 0.16 0.16 92 1021.7
20260902120104 58 0 0.0 0.9 0.07 0.16 0.16 92 1021.7
20260902114604 58 0 0.0 0.9 0.12 0.16 0.16 91 1021.6
20260902113100 58 0 0.0 1.7 0.12 0.15 0.15 91 1021.5
20260902111604 58 252 0.0 2.6 0.11 0.13 0.13 91 1021.5
20260902110106 58 5 0.0 2.6 0.07 0.08 0.08 91 1021.4
20260902104616 58 293 0.0 0.9 0.03 0.03 0.03 90 1021.3
20260902103119 58 0 0.0 2.6 0.03 0.03 0.03 89 1021.2
20260902101609 58 276 0.9 2.6 0.01 0.01 0.01 88 1021.1
20260902094601 59 285 0.9 6.1 0.00 0.00 0.00 84 1020.8
20260902093105 60 286 0.9 4.3 0.00 0.00 0.00 81 1020.7
20260902091603 60 296 0.9 3.5 0.00 0.00 0.00 80 1020.6
20260902090101 60 300 0.9 5.2 0.00 0.00 0.00 81 1020.5
20260902084603 60 279 0.9 3.5 0.00 0.00 0.00 84 1020.3
20260902083101 60 242 0.9 8.7 0.00 0.00 0.00 81 1020.2
20260902081558 62 258 2.6 7.8 0.00 0.00 0.00 76 1020.3
20260902074601 64 286 2.6 6.1 0.00 0.00 0.00 71 1020.4
20260902073059 63 254 0.9 4.3 0.00 0.00 0.00 72 1020.4
20260902071603 61 298 0.9 6.1 0.00 0.00 0.00 79 1020.4
20260902070108 61 284 1.7 7.0 0.00 0.00 0.00 78 1020.9
20260902064606 62 284 2.6 8.7 0.00 0.00 0.00 75 1020.9
20260902063119 64 313 1.7 8.7 0.00 0.00 0.00 70 1020.7
20260902061625 63 331 1.7 7.8 0.00 0.00 0.00 75 1020.6
20260902060128 64 207 1.7 8.7 0.00 0.00 0.00 68 1020.6
20260902054602 64 240 2.6 9.6 0.00 0.00 0.00 67 1020.8
20260902053113 64 245 3.5 7.8 0.00 0.00 0.00 68 1021.0
20260902051617 65 263 1.7 4.3 0.00 0.00 0.00 70 1021.2
20260902050114 63 322 1.7 6.1 0.00 0.00 0.00 68 1021.6
20260902044636 63 299 0.9 3.5 0.00 0.00 0.00 70 1021.8
20260902043105 62 284 1.7 4.3 0.00 0.00 0.00 74 1022.1
20260902041615 61 355 0.0 5.2 0.00 0.00 0.00 79 1022.3
20260902040111 62 331 0.9 4.3 0.00 0.00 0.00 69 1022.2
20260902034603 63 0 2.6 7.0 0.00 0.00 0.00 69 1022.2
20260902033104 64 306 0.9 7.0 0.00 0.00 0.00 68 1022.3
20260902031617 64 258 2.6 7.0 0.00 0.00 0.00 69 1022.5
20260902030108 62 205 1.7 7.0 0.00 0.00 0.00 69 1022.6
20260902024601 62 343 0.9 6.1 0.00 0.00 0.00 71 1022.7
20260902023101 61 254 3.5 7.8 0.00 0.00 0.00 70 1022.7
20260902021603 61 277 2.6 8.7 0.00 0.00 0.00 72 1022.8
20260902014600 61 274 2.6 7.8 0.00 0.00 0.00 69 1022.7
20260902013110 60 261 1.7 7.0 0.00 0.00 0.00 72 1022.7
20260902011602 62 261 2.6 8.7 0.00 0.00 0.00 67 1022.5
20260902010105 61 246 1.7 6.1 0.00 0.00 0.00 65 1022.5
20260902004607 61 302 1.7 8.7 0.00 0.00 0.00 63 1022.4
20260902003106 60 248 1.7 3.5 0.00 0.00 0.00 65 1022.3
20260902001605 58 0 0.0 2.6 0.00 0.00 0.00 71 1022.3
20260902000105 56 0 0.0 0.9 0.00 0.00 0.00 77 1022.1
20260901234609 56 0 0.0 0.0 0.00 0.00 0.00 77 1021.8
20260901233105 55 0 0.0 0.0 0.00 0.00 0.00 78 1021.7
20260901231616 55 0 0.0 0.0 0.00 0.00 0.00 79 1021.8
20260901230110 54 0 0.0 1.7 0.00 0.00 0.00 79 1022.1
20260901224605 54 0 0.0 0.9 0.00 0.00 0.00 78 1021.8
20260901223106 54 0 0.0 1.7 0.00 0.00 0.00 76 1021.6